Weather History for 78583 - September, 2013

Change the Weather History Date:

Tuesday, September 10, 2013

  Actual Average Record
Temperature  
Mean Temperature 81 °F -  
Max Temperature 85 °F 88 °F - ()
Min Temperature 77 °F 74 °F - ()
Cooling Degree Days 16    
Growing Degree Days 31 (Base 50)    
Moisture  
Dew Point 77 °F    
Average Humidity 88    
Maximum Humidity 100    
Minimum Humidity 74    
Precipitation  
Precipitation 0.31 in 0.35 in - ()
Sea Level Pressure  
Sea Level Pressure 29.82 in    
Wind  
Wind Speed 5 mph ()    
Max Wind Speed 12 mph    
Max Gust Speed -    
Visibility 6.4 miles    
Events Rain , Thunderstorm    
T = Trace of Precipitation, MM = Missing Value Source: Averaged Metar Reports

Daily Weather History Graph

Daily Weather History Graph

Search for Another Location

Airport or City:

Trip Planner

Search our weather history database for the weather conditions in past years. The results will help you decide how hot, cold, wet, or windy it might be!

Date:

Astronomy

Sep. 10, 2013 Rise Set
Actual Time 5:40 AM CST 5:59 PM CST
Civil Twilight 5:18 AM CST 6:21 PM CST
Nautical Twilight 4:53 AM CST 6:46 PM CST
Astronomical Twilight 4:27 AM CST 7:11 PM CST
Moon 10:15 AM CST (9/10) 9:54 PM CST (9/10)
Length of Visible Light 13h 02m
Length of Day
12h 18m
Waxing Crescent, 29% of the Moon is Illuminated
Sep 10
Waxing Crescent
Sep 12
First Quarter
Sep 19
Full
Sep 26
Last Quarter
Oct 4
New

Hourly Weather History & Observations

Time (CST) Temp. Heat Index Dew Point Humidity Pressure Visibility Wind Dir Wind Speed Gust Speed Precip Events Conditions
12:00 AM 79 °F - 77 °F 92% 29.84 in 12 mi Calm Calm - -   Mostly Cloudy
3:00 AM 78 °F - 76 °F 93% 29.81 in 12 mi Calm Calm - -   Mostly Cloudy
5:00 AM 77.0 °F - 77.0 °F 100% 29.80 in 6.2 mi WNW 6.9 mph - N/A Rain Light Rain Showers
6:00 AM 77 °F - 76 °F 96% 29.84 in 4 mi WNW 5.8 mph - - Thunderstorm Thunderstorm
6:00 AM 77.0 °F - 77.0 °F 100% 29.83 in 3.7 mi WNW 5.8 mph - N/A Thunderstorm Thunderstorm
7:00 AM 78.8 °F - 77.0 °F 94% 29.83 in 6.2 mi NNW 6.9 mph - N/A   Mostly Cloudy
8:00 AM 80.6 °F 88.1 °F 78.8 °F 94% 29.83 in 6.2 mi NNW 11.5 mph - N/A Rain Light Rain Showers
8:22 AM 80.6 °F 88.1 °F 78.8 °F 94% 29.84 in 6.2 mi North 8.1 mph - N/A   Mostly Cloudy
9:00 AM 83 °F - 78 °F 80% 29.86 in 14 mi NNW 6.9 mph - - Rain Light Rain Showers
9:00 AM 82.4 °F 92.4 °F 78.8 °F 89% 29.85 in 6.2 mi NNW 6.9 mph - N/A   Mostly Cloudy
10:00 AM 86.0 °F 96.9 °F 77.0 °F 74% 29.86 in 6.2 mi NNW 6.9 mph - N/A   Mostly Cloudy
10:33 AM 86.0 °F 96.9 °F 77.0 °F 74% 2.98 in 2.5 mi North 9.2 mph - N/A Rain Rain Showers
11:00 AM - - 77.0 °F N/A% 29.87 in 3.1 mi NE 5.8 mph - N/A Rain Light Rain Showers
11:07 AM 78.8 °F - 77.0 °F 94% 29.86 in 5.0 mi NE 5.8 mph - N/A Rain Light Rain Showers
11:14 AM 78.8 °F - 77.0 °F 94% 29.86 in 5.0 mi NE 4.6 mph - N/A Rain , Thunderstorm Light Thunderstorms and Rain
11:38 AM 78.8 °F - 77.0 °F 94% 29.85 in 3.7 mi Variable 1.2 mph - N/A   Mostly Cloudy
12:00 PM 82 °F - 77 °F 81% 29.85 in 4 mi NE 6.9 mph - - Thunderstorm Light Thunderstorm
12:00 PM 82.4 °F 90.9 °F 77.0 °F 84% 29.84 in 3.7 mi NE 6.9 mph - N/A   Mostly Cloudy
1:00 PM 82.4 °F 90.9 °F 77.0 °F 84% 29.82 in 5.0 mi NE 8.1 mph - N/A   Mostly Cloudy
2:00 PM 82.4 °F - - N/A% 29.79 in 5.0 mi ENE 8.1 mph - N/A   Mostly Cloudy
3:00 PM 84 °F - 77 °F 74% 29.79 in 12 mi ENE 8.1 mph - - Thunderstorm Thunderstorm
3:00 PM 84.2 °F 94.1 °F 77.0 °F 79% 29.77 in 6.2 mi ENE 8.1 mph - N/A Thunderstorm Thunderstorm
3:20 PM 84.2 °F 94.1 °F 77.0 °F 79% 29.77 in 6.2 mi ENE 8.1 mph - N/A   Mostly Cloudy
4:00 PM 80.6 °F 87.1 °F 77.0 °F 89% 29.78 in - NE 5.8 mph - N/A Rain Light Rain Showers
5:00 PM 80.6 °F 87.1 °F 77.0 °F 89% 29.77 in 6.2 mi NE 4.6 mph - N/A   Mostly Cloudy
6:00 PM 80 °F - 77 °F 88% 29.80 in 9 mi Calm Calm - -   Mostly Cloudy
6:00 PM 78.8 °F - 77.0 °F 94% 29.77 in 6.2 mi Calm Calm - N/A   Mostly Cloudy